, FL

(GMT )
Bonifay

Weather History for K1J0 - August, 2019

Change the Weather History Date:

Sunday, August 4, 2019

  Actual Average Record
Temperature  
Mean Temperature 80 °F -  
Max Temperature 90 °F - - ()
Min Temperature 70 °F - - ()
Cooling Degree Days 15    
Growing Degree Days 30 (Base 50)    
Moisture  
Dew Point 71 °F    
Average Humidity 76    
Maximum Humidity 97    
Minimum Humidity 54    
Precipitation  
Precipitation 0.00 in - - ()
Sea Level Pressure  
Sea Level Pressure 29.89 in    
Wind  
Wind Speed 2 mph (SW)    
Max Wind Speed 8 mph    
Max Gust Speed -    
Visibility 10 miles    
Events Thunderstorm    
Averages and records for this station are not official NWS values.
T = Trace of Precipitation, MM = Missing Value Source: NWS Daily Summary

Daily Weather History Graph

Daily Weather History Graph

Search for Another Location

Airport or City:

Astronomy

Aug. 04, 2019 Rise Set
Actual Time 7:01 AM EDT 8:34 PM EDT
Civil Twilight 6:35 AM EDT 9:00 PM EDT
Nautical Twilight 6:04 AM EDT 9:32 PM EDT
Astronomical Twilight 5:31 AM EDT 10:04 PM EDT
Moon 10:52 AM EDT (8/4) 11:30 PM EDT (8/4)
Length of Visible Light 14h 25m
Length of Day
13h 33m
Waxing Crescent, 18% of the Moon is Illuminated
Aug 4
Waxing Crescent
Aug 7
First Quarter
Aug 15
Full
Aug 23
Last Quarter
Aug 30
New

Hourly Weather History & Observations

Time (EDT) Temp. Heat Index Dew Point Humidity Pressure Visibility Wind Dir Wind Speed Gust Speed Precip Events Conditions
12:58 AM 72.0 °F - 70.0 °F 93% 29.86 in 10.0 mi Calm Calm - N/A   Clear
1:58 AM 71.1 °F - 70.0 °F 96% 29.86 in 9.0 mi Calm Calm - N/A   Clear
2:58 AM 71.1 °F - 69.1 °F 93% 29.85 in 8.0 mi Calm Calm - N/A   Clear
3:58 AM 70.0 °F - 68.0 °F 93% 29.85 in 7.0 mi NW 3.5 mph - N/A   Clear
4:58 AM 70.0 °F - 69.1 °F 97% 29.85 in 10.0 mi Calm Calm - N/A   Clear
5:46 AM 70.0 °F - 69.1 °F 97% 29.98 in 10.0 mi Calm Calm - N/A   Partly Cloudy
5:58 AM 70.0 °F - 69.1 °F 97% 29.86 in 9.0 mi Calm Calm - N/A   Clear
6:58 AM 70.0 °F - 68.0 °F 93% 29.87 in 9.0 mi NNE 3.5 mph - N/A   Clear
7:58 AM 71.1 °F - 69.1 °F 93% 29.89 in 10.0 mi Calm Calm - N/A   Clear
9:30 AM 77.0 °F - 72.0 °F 84% 30.03 in 10.0 mi Calm Calm - N/A   Scattered Clouds
9:58 AM 79.0 °F - 72.0 °F 79% 29.91 in 10.0 mi Calm Calm - N/A   Clear
10:58 AM 84.0 °F 90.2 °F 73.0 °F 69% 29.91 in 10.0 mi Calm Calm - N/A   Clear
11:58 AM 84.9 °F 91.4 °F 73.0 °F 67% 29.90 in 10.0 mi West 4.6 mph - N/A   Partly Cloudy
12:16 PM 86.0 °F 92.2 °F 72.0 °F 63% 30.02 in 10.0 mi Calm Calm - N/A   Mostly Cloudy
12:58 PM 87.1 °F 92.8 °F 71.1 °F 59% 29.90 in 10.0 mi Calm Calm - N/A   Mostly Cloudy
1:58 PM 90.0 °F 96.9 °F 72.0 °F 55% 29.88 in 10.0 mi Calm Calm - N/A   Clear
2:58 PM 90.0 °F 96.4 °F 71.1 °F 54% 29.83 in 10.0 mi ESE 8.1 mph - N/A   Mostly Cloudy
3:58 PM 89.1 °F 95.0 °F 71.1 °F 55% 29.83 in 10.0 mi SSW 8.1 mph - N/A   Scattered Clouds
5:16 PM 89.1 °F 95.0 °F 71.1 °F 55% 29.93 in 10.0 mi SW 6.9 mph - N/A   Partly Cloudy
5:58 PM - - - N/A% - 10.0 mi SSW 5.8 mph - N/A   Clear
6:41 PM 89.1 °F 96.0 °F 72.0 °F 57% 29.93 in 10.0 mi South 5.8 mph - N/A Thunderstorm Thunderstorm
6:58 PM 88.0 °F 94.7 °F 72.0 °F 59% 29.80 in 10.0 mi SW 3.5 mph - N/A Thunderstorm Thunderstorm
7:14 PM 88.0 °F 94.7 °F 72.0 °F 59% 29.92 in 10.0 mi SSW 3.5 mph - N/A   Clear
7:57 PM 82.9 °F 86.5 °F 69.1 °F 63% 29.83 in 10.0 mi North 3.5 mph - N/A Thunderstorm Thunderstorm
8:12 PM 82.9 °F 87.5 °F 71.1 °F 67% 29.95 in 10.0 mi Calm Calm - N/A   Overcast
8:58 PM 82.0 °F 86.7 °F 72.0 °F 71% 29.84 in 10.0 mi WSW 3.5 mph - N/A   Partly Cloudy
9:58 PM 79.0 °F - 73.0 °F 82% 29.85 in 10.0 mi Calm Calm - N/A   Clear
10:58 PM 79.0 °F - 72.0 °F 79% 29.86 in 10.0 mi WSW 3.5 mph - N/A   Clear
11:58 PM 77.0 °F - 73.9 °F 90% 29.87 in 10.0 mi Calm Calm - N/A   Scattered Clouds